Regional Weather Roundup
Issued by NWS

Home | Current Version | Previous Version | Graphics & Text | Print | Product List | Glossary On
Versions: 1 2 3 4 5 6 7 8 9 10 11 12 13 14 15 16 17 18 19 20 21 22 23 24 25 26 27 28 29 30 31 32 33 34 35 36 37 38 39 40 41 42 43 44 45 46 47 48 49 50
000
ASUS43 KFSD 210702
RWRSD

WEATHER ROUNDUP FOR SOUTH DAKOTA
NATIONAL WEATHER SERVICE SIOUX FALLS SD
200 AM CDT SUN SEP 21 2014

NOTE: "FAIR" INDICATES FEW OR NO CLOUDS BELOW 12,000 FEET WITH NO
SIGNIFICANT WEATHER AND/OR OBSTRUCTIONS TO VISIBILITY.


SDZ001>005-009-010-012>017-210800-
NORTHWEST AND NORTH CENTRAL SOUTH DAKOTA

CITY           SKY/WX    TMP DP  RH WIND       PRES   REMARKS
FAITH            N/A     47  37  68 NW10      30.23R
MOBRIDGE       CLEAR     50  43  77 N9        30.14R
$$

SDZ012>016-024>037-041>051-057-063-072>074-210800-
SOUTHWEST AND SOUTH CENTRAL SOUTH DAKOTA

CITY           SKY/WX    TMP DP  RH WIND       PRES   REMARKS
RAPID CTY ARPT CLEAR     51  37  58 NW10      30.29R
PIERRE         CLEAR     49  44  83 W10       30.17R
CUSTER         CLEAR     43  33  68 CALM      30.38R
ELLSWORTH AFB  CLEAR     55  37  50 NW10      30.29R
PHILIP         CLEAR     44  38  79 W7        30.23R
PINE RIDGE     CLEAR     45  40  82 CALM      30.30R
WINNER         FAIR      51  39  63 W9        30.19R
$$

SDZ004>011-016>023-039-040-210800-
NORTHEAST SOUTH DAKOTA

CITY           SKY/WX    TMP DP  RH WIND       PRES   REMARKS
ABERDEEN       CLEAR     56  42  59 NW12      30.09R
WATERTOWN      CLEAR     56  43  61 NW16      30.05R
$$

SDZ017-020-022-023-036>040-048>070-210800-
SOUTHEAST SOUTH DAKOTA

CITY           SKY/WX    TMP DP  RH WIND       PRES   REMARKS
SIOUX FALLS    CLEAR     56  44  64 W10       30.07R
HURON          CLEAR     51  40  65 NW9       30.10R
CHAMBERLAIN    CLEAR     51  40  65 NW7       30.16R
MITCHELL       CLEAR     55  42  61 NW9       30.12R
YANKTON        CLEAR     57  43  58 W10       30.11R
$$

ABBREVIATIONS USED IN REMARKS
   TC - TEMPERATURE IN CELSIUS
  WCI - WIND CHILL INDEX
   HX - HEAT INDEX
  VSB - VISIBILITY



USA.gov is the U.S. government's official web portal to all federal, state and local government web resources and services.